This is the latest recevied weather packets stored in our database for station/object KO4RMV-3. If no packets are shown the sender has not sent any weather packets the latest 10 day(s).
| Time | Temp. | Humidity | Pressure | Rain* | Wind** | Luminosity | Snow |
|---|---|---|---|---|---|---|---|
| 1778020205 | 27.22° C | 36% | - | 0 mm | - | - | - |
| 1778019306 | 27.22° C | 36% | - | 0 mm | - | - | - |
| 1778018406 | 27.78° C | 34% | - | 0 mm | - | - | - |
| 1778017506 | 27.78° C | 31% | - | 0 mm | - | - | - |
| 1778016606 | 28.33° C | 30% | - | 0 mm | - | - | - |
| 1778015706 | 28.33° C | 30% | - | 0 mm | - | - | - |
| 1778014806 | 28.33° C | 29% | - | 0 mm | - | - | - |
| 1778013906 | 28.89° C | 29% | - | 0 mm | - | - | - |
| 1778013006 | 28.89° C | 28% | - | 0 mm | - | - | - |
| 1778012105 | 29.44° C | 26% | - | 0 mm | - | - | - |
| 1778011205 | 29.44° C | 27% | - | 0 mm | - | - | - |
| 1778010305 | 30° C | 27% | - | 0 mm | - | - | - |
| 1778009405 | 30.56° C | 28% | - | 0 mm | - | - | - |
| 1778008505 | 30° C | 28% | - | 0 mm | - | - | - |
| 1778007605 | 30° C | 28% | - | 0 mm | - | - | - |
| 1778006705 | 30° C | 28% | - | 0 mm | - | - | - |
| 1778005805 | 30° C | 29% | - | 0 mm | - | - | - |
| 1778004905 | 30° C | 30% | - | 0 mm | - | - | - |
| 1778004005 | 29.44° C | 32% | - | 0 mm | - | - | - |
| 1778003105 | 29.44° C | 32% | - | 0 mm | - | - | - |
| 1778002205 | 30° C | 34% | - | 0 mm | - | - | - |
| 1778001306 | 30° C | 36% | - | 0 mm | - | - | - |
| 1778000406 | 29.44° C | 36% | - | 0 mm | - | - | - |
| 1777999506 | 28.89° C | 37% | - | 0 mm | - | - | - |
| 1777998606 | 28.33° C | 37% | - | 0 mm | - | - | - |
* Rain latest hour (hover to see other rain measurements)
** Current wind speed in m/s (hover to see current wind gust speed)